Time,TemperatureF,DewpointF,PressureIn,WindDirection,WindDirectionDegrees,WindSpeedMPH,WindSpeedGustMPH,Humidity,HourlyPrecipIn,Conditions,Clouds,dailyrainin,SolarRadiationWatts/m^2,SoftwareType,DateUTC
2013-01-19 00:02:00,28.0,26.0,-100.00,WSW,243,6.0,9.0,91,0.00,,,0.00,0.000000,,2013-01-19 06:02:00,
2013-01-19 00:11:00,28.0,26.0,-100.00,WSW,250,3.0,9.0,91,0.00,,,0.00,0.000000,,2013-01-19 06:11:00,
2013-01-19 00:43:00,28.0,26.0,-100.00,WSW,250,3.0,9.0,91,0.00,,,0.00,0.000000,,2013-01-19 06:43:00,
2013-01-19 00:53:00,28.0,26.0,-100.00,WSW,250,3.0,9.0,91,0.00,,,0.00,0.000000,,2013-01-19 06:53:00,
2013-01-19 01:02:00,28.0,26.0,-100.00,WSW,250,3.0,9.0,91,0.00,,,0.00,0.000000,,2013-01-19 07:02:00,
2013-01-19 01:11:00,26.0,25.0,-100.00,SE,145,2.0,6.0,95,0.00,,,0.00,0.000000,,2013-01-19 07:11:00,
2013-01-19 01:33:00,26.0,25.0,-100.00,SE,145,2.0,6.0,95,0.00,,,0.00,0.000000,,2013-01-19 07:33:00,
2013-01-19 01:43:00,26.0,25.0,-100.00,SE,145,2.0,6.0,95,0.00,,,0.00,0.000000,,2013-01-19 07:43:00,
2013-01-19 01:53:00,26.0,25.0,-100.00,SE,145,2.0,6.0,95,0.00,,,0.00,0.000000,,2013-01-19 07:53:00,
2013-01-19 02:02:00,26.0,25.0,-100.00,SE,145,2.0,6.0,95,0.00,,,0.00,0.000000,,2013-01-19 08:02:00,
2013-01-19 02:11:00,26.0,25.0,-100.00,South,169,5.0,10.0,96,0.00,,,0.00,0.000000,,2013-01-19 08:11:00,
2013-01-19 02:33:00,26.0,25.0,-100.00,South,169,5.0,10.0,96,0.00,,,0.00,0.000000,,2013-01-19 08:33:00,
2013-01-19 02:43:00,26.0,25.0,-100.00,South,169,5.0,10.0,96,0.00,,,0.00,0.000000,,2013-01-19 08:43:00,
2013-01-19 02:53:00,26.0,25.0,-100.00,South,169,5.0,10.0,96,0.00,,,0.00,0.000000,,2013-01-19 08:53:00,
2013-01-19 03:02:00,26.0,25.0,-100.00,South,169,5.0,10.0,96,0.00,,,0.00,0.000000,,2013-01-19 09:02:00,
2013-01-19 03:11:00,28.0,26.0,-100.00,South,174,6.0,9.0,92,0.00,,,0.00,0.000000,,2013-01-19 09:11:00,
2013-01-19 03:33:00,28.0,26.0,-100.00,South,174,6.0,9.0,92,0.00,,,0.00,0.000000,,2013-01-19 09:33:00,
2013-01-19 03:43:00,28.0,26.0,-100.00,South,174,6.0,9.0,92,0.00,,,0.00,0.000000,,2013-01-19 09:43:00,
2013-01-19 03:53:00,28.0,26.0,-100.00,South,174,6.0,9.0,92,0.00,,,0.00,0.000000,,2013-01-19 09:53:00,
2013-01-19 04:02:00,28.0,26.0,-100.00,South,174,6.0,9.0,92,0.00,,,0.00,0.000000,,2013-01-19 10:02:00,
2013-01-19 04:11:00,27.0,26.0,-100.00,South,180,7.0,9.0,96,0.00,,,0.00,0.000000,,2013-01-19 10:11:00,
2013-01-19 04:33:00,27.0,26.0,-100.00,South,180,7.0,9.0,96,0.00,,,0.00,0.000000,,2013-01-19 10:33:00,
2013-01-19 04:43:00,27.0,26.0,-100.00,South,180,7.0,9.0,96,0.00,,,0.00,0.000000,,2013-01-19 10:43:00,
2013-01-19 04:53:00,27.0,26.0,-100.00,South,180,7.0,9.0,96,0.00,,,0.00,0.000000,,2013-01-19 10:53:00,
2013-01-19 05:03:00,27.0,26.0,-100.00,South,180,7.0,9.0,96,0.00,,,0.00,0.000000,,2013-01-19 11:03:00,
2013-01-19 06:11:00,28.0,27.0,-100.00,SW,236,9.0,11.0,94,0.00,,,0.00,0.000000,,2013-01-19 12:11:00,
2013-01-19 06:48:00,28.0,27.0,-100.00,SW,236,9.0,11.0,94,0.00,,,0.00,0.000000,,2013-01-19 12:48:00,
2013-01-19 07:03:00,28.0,27.0,-100.00,SW,236,9.0,11.0,94,0.00,,,0.00,0.000000,,2013-01-19 13:03:00,
2013-01-19 07:11:00,28.0,26.0,-100.00,West,261,9.0,13.0,92,0.00,,,0.00,0.000000,,2013-01-19 13:11:00,
2013-01-19 07:34:00,28.0,26.0,-100.00,West,261,9.0,13.0,92,0.00,,,0.00,0.000000,,2013-01-19 13:34:00,
2013-01-19 07:43:00,28.0,26.0,-100.00,West,261,9.0,13.0,92,0.00,,,0.00,0.000000,,2013-01-19 13:43:00,
2013-01-19 07:53:00,28.0,26.0,-100.00,West,261,9.0,13.0,92,0.00,,,0.00,0.000000,,2013-01-19 13:53:00,
2013-01-19 08:02:00,28.0,26.0,-100.00,West,261,9.0,13.0,92,0.00,,,0.00,0.000000,,2013-01-19 14:02:00,
2013-01-19 08:11:00,33.0,28.0,-100.00,West,276,13.0,17.0,82,0.00,,,0.00,3.000000,,2013-01-19 14:11:00,
2013-01-19 08:34:00,33.0,28.0,-100.00,West,276,13.0,17.0,82,0.00,,,0.00,3.000000,,2013-01-19 14:34:00,
2013-01-19 08:43:00,33.0,28.0,-100.00,West,276,13.0,17.0,82,0.00,,,0.00,3.000000,,2013-01-19 14:43:00,
2013-01-19 08:53:00,33.0,28.0,-100.00,West,276,13.0,17.0,82,0.00,,,0.00,3.000000,,2013-01-19 14:53:00,
2013-01-19 09:03:00,33.0,28.0,-100.00,West,276,13.0,17.0,82,0.00,,,0.00,3.000000,,2013-01-19 15:03:00,
2013-01-19 09:11:00,34.0,28.0,-100.00,West,278,14.0,21.0,79,0.00,,,0.00,50.000000,,2013-01-19 15:11:00,
2013-01-19 09:43:00,34.0,28.0,-100.00,West,278,14.0,21.0,79,0.00,,,0.00,50.000000,,2013-01-19 15:43:00,
2013-01-19 09:53:00,34.0,28.0,-100.00,West,278,14.0,21.0,79,0.00,,,0.00,50.000000,,2013-01-19 15:53:00,
2013-01-19 10:03:00,34.0,28.0,-100.00,West,278,14.0,21.0,79,0.00,,,0.00,50.000000,,2013-01-19 16:03:00,
2013-01-19 10:33:00,35.0,28.0,-100.00,WNW,283,17.0,23.0,76,0.00,,,0.00,148.000000,,2013-01-19 16:33:00,
2013-01-19 10:43:00,35.0,28.0,-100.00,WNW,283,17.0,23.0,76,0.00,,,0.00,148.000000,,2013-01-19 16:43:00,
2013-01-19 10:54:00,35.0,28.0,-100.00,WNW,283,17.0,23.0,76,0.00,,,0.00,148.000000,,2013-01-19 16:54:00,
2013-01-19 11:03:00,35.0,28.0,-100.00,WNW,283,17.0,23.0,76,0.00,,,0.00,148.000000,,2013-01-19 17:03:00,
2013-01-19 11:11:00,37.0,29.0,-100.00,WNW,284,16.0,23.0,74,0.00,,,0.00,344.000000,,2013-01-19 17:11:00,
2013-01-19 11:50:00,37.0,29.0,-100.00,WNW,284,16.0,23.0,74,0.00,,,0.00,344.000000,,2013-01-19 17:50:00,
2013-01-19 12:11:00,38.0,30.0,-100.00,West,280,15.0,24.0,73,0.00,,,0.00,424.000000,,2013-01-19 18:11:00,
2013-01-19 12:38:00,38.0,30.0,-100.00,West,280,15.0,24.0,73,0.00,,,0.00,424.000000,,2013-01-19 18:38:00,
2013-01-19 12:47:00,38.0,30.0,-100.00,West,280,15.0,24.0,73,0.00,,,0.00,424.000000,,2013-01-19 18:47:00,
2013-01-19 13:11:00,35.0,29.0,-100.00,WNW,287,26.0,41.0,78,0.00,,,0.00,230.000000,,2013-01-19 19:11:00,
2013-01-19 13:49:00,35.0,29.0,-100.00,WNW,287,26.0,41.0,78,0.00,,,0.00,230.000000,,2013-01-19 19:49:00,
2013-01-19 13:58:00,35.0,29.0,-100.00,WNW,287,26.0,41.0,78,0.00,,,0.00,230.000000,,2013-01-19 19:58:00,
2013-01-19 14:10:00,35.0,29.0,-100.00,WNW,287,26.0,41.0,78,0.00,,,0.00,230.000000,,2013-01-19 20:10:00,
2013-01-19 14:11:00,24.0,14.0,-100.00,WNW,298,29.0,43.0,66,0.03,,,0.03,212.000000,,2013-01-19 20:11:00,
2013-01-19 14:39:00,24.0,14.0,-100.00,WNW,298,29.0,43.0,66,0.03,,,0.03,212.000000,,2013-01-19 20:39:00,
2013-01-19 14:50:00,24.0,14.0,-100.00,WNW,298,29.0,43.0,66,0.03,,,0.03,212.000000,,2013-01-19 20:50:00,
2013-01-19 14:59:00,24.0,14.0,-100.00,WNW,298,29.0,43.0,66,0.03,,,0.03,212.000000,,2013-01-19 20:59:00,
2013-01-19 15:06:00,24.0,14.0,-100.00,WNW,298,29.0,43.0,66,0.03,,,0.03,212.000000,,2013-01-19 21:06:00,
2013-01-19 15:11:00,16.0,5.0,-100.00,WNW,300,30.0,49.0,61,0.00,,,0.03,277.000000,,2013-01-19 21:11:00,
2013-01-19 15:53:00,16.0,5.0,-100.00,WNW,300,30.0,49.0,61,0.00,,,0.03,277.000000,,2013-01-19 21:53:00,
2013-01-19 16:00:00,16.0,5.0,-100.00,WNW,300,30.0,49.0,61,0.00,,,0.03,277.000000,,2013-01-19 22:00:00,
2013-01-19 16:11:00,14.0,2.0,-100.00,WNW,301,29.0,42.0,57,0.00,,,0.03,176.000000,,2013-01-19 22:11:00,
2013-01-19 16:49:00,14.0,2.0,-100.00,WNW,301,29.0,42.0,57,0.00,,,0.03,176.000000,,2013-01-19 22:49:00,
2013-01-19 16:58:00,14.0,2.0,-100.00,WNW,301,29.0,42.0,57,0.00,,,0.03,176.000000,,2013-01-19 22:58:00,
2013-01-19 17:11:00,9.0,-3.0,-100.00,WNW,300,31.0,45.0,56,0.00,,,0.03,39.000000,,2013-01-19 23:11:00,
2013-01-19 17:35:00,9.0,-3.0,-100.00,WNW,300,31.0,45.0,56,0.00,,,0.03,39.000000,,2013-01-19 23:35:00,
2013-01-19 18:07:00,9.0,-3.0,-100.00,WNW,300,31.0,45.0,56,0.00,,,0.03,39.000000,,2013-01-20 00:07:00,
2013-01-19 18:11:00,5.0,-5.0,-100.00,WNW,298,29.0,38.0,62,0.00,,,0.03,1.000000,,2013-01-20 00:11:00,
2013-01-19 18:38:00,5.0,-5.0,-100.00,WNW,298,29.0,38.0,62,0.00,,,0.03,1.000000,,2013-01-20 00:38:00,
2013-01-19 18:48:00,5.0,-5.0,-100.00,WNW,298,29.0,38.0,62,0.00,,,0.03,1.000000,,2013-01-20 00:48:00,
2013-01-19 19:04:00,5.0,-5.0,-100.00,WNW,298,29.0,38.0,62,0.00,,,0.03,1.000000,,2013-01-20 01:04:00,
2013-01-19 19:11:00,3.0,-7.0,-100.00,WNW,299,25.0,34.0,63,0.00,,,0.03,0.000000,,2013-01-20 01:11:00,
2013-01-19 19:39:00,3.0,-7.0,-100.00,WNW,299,25.0,34.0,63,0.00,,,0.03,0.000000,,2013-01-20 01:39:00,
2013-01-19 19:51:00,3.0,-7.0,-100.00,WNW,299,25.0,34.0,63,0.00,,,0.03,0.000000,,2013-01-20 01:51:00,
2013-01-19 20:04:00,3.0,-7.0,-100.00,WNW,299,25.0,34.0,63,0.00,,,0.03,0.000000,,2013-01-20 02:04:00,
2013-01-19 20:11:00,1.0,-8.0,-100.00,WNW,302,20.0,32.0,66,0.00,,,0.03,0.000000,,2013-01-20 02:11:00,
2013-01-19 20:38:00,1.0,-8.0,-100.00,WNW,302,20.0,32.0,66,0.00,,,0.03,0.000000,,2013-01-20 02:38:00,
2013-01-19 20:45:00,1.0,-8.0,-100.00,WNW,302,20.0,32.0,66,0.00,,,0.03,0.000000,,2013-01-20 02:45:00,
2013-01-19 20:59:00,1.0,-8.0,-100.00,WNW,302,20.0,32.0,66,0.00,,,0.03,0.000000,,2013-01-20 02:59:00,
2013-01-19 21:08:00,1.0,-8.0,-100.00,WNW,302,20.0,32.0,66,0.00,,,0.03,0.000000,,2013-01-20 03:08:00,
2013-01-19 21:11:00,0.0,-9.0,-100.00,WNW,295,22.0,32.0,66,0.00,,,0.03,0.000000,,2013-01-20 03:11:00,
2013-01-19 21:39:00,0.0,-9.0,-100.00,WNW,295,22.0,32.0,66,0.00,,,0.03,0.000000,,2013-01-20 03:39:00,
2013-01-19 21:47:00,0.0,-9.0,-100.00,WNW,295,22.0,32.0,66,0.00,,,0.03,0.000000,,2013-01-20 03:47:00,
2013-01-19 21:58:00,0.0,-9.0,-100.00,WNW,295,22.0,32.0,66,0.00,,,0.03,0.000000,,2013-01-20 03:58:00,
2013-01-19 22:05:00,0.0,-9.0,-100.00,WNW,295,22.0,32.0,66,0.00,,,0.03,0.000000,,2013-01-20 04:05:00,
2013-01-19 22:11:00,-1.0,-9.0,-100.00,WNW,301,19.0,30.0,68,0.00,,,0.03,0.000000,,2013-01-20 04:11:00,
2013-01-19 22:38:00,-1.0,-9.0,-100.00,WNW,301,19.0,30.0,68,0.00,,,0.03,0.000000,,2013-01-20 04:38:00,
2013-01-19 22:45:00,-1.0,-9.0,-100.00,WNW,301,19.0,30.0,68,0.00,,,0.03,0.000000,,2013-01-20 04:45:00,
2013-01-19 22:58:00,-1.0,-9.0,-100.00,WNW,301,19.0,30.0,68,0.00,,,0.03,0.000000,,2013-01-20 04:58:00,
2013-01-19 23:04:00,-1.0,-9.0,-100.00,WNW,301,19.0,30.0,68,0.00,,,0.03,0.000000,,2013-01-20 05:04:00,
2013-01-19 23:11:00,-1.0,-9.0,-100.00,WNW,293,14.0,25.0,68,0.00,,,0.03,0.000000,,2013-01-20 05:11:00,
2013-01-19 23:33:00,-1.0,-9.0,-100.00,WNW,293,14.0,25.0,68,0.00,,,0.03,0.000000,,2013-01-20 05:33:00,
2013-01-19 23:43:00,-1.0,-9.0,-100.00,WNW,293,14.0,25.0,68,0.00,,,0.03,0.000000,,2013-01-20 05:43:00,
2013-01-19 23:53:00,-1.0,-9.0,-100.00,WNW,293,14.0,25.0,68,0.00,,,0.03,0.000000,,2013-01-20 05:53:00,